Weather History for Milwaukee Timmerman, WI

Change the Weather History Date:

Monday, February 18, 2013

  Actual Average Record
Temperature  
Mean Temperature 37 °F -  
Max Temperature 46 °F 35 °F 54 °F (1981)
Min Temperature 28 °F 21 °F -14 °F (2006)
Degree Days  
Heating Degree Days 28    
Moisture  
Dew Point 27 °F    
Average Humidity 75    
Maximum Humidity 100    
Minimum Humidity 55    
Precipitation  
Precipitation 0.20 in - - ()
Sea Level Pressure  
Sea Level Pressure 29.64 in    
Wind  
Wind Speed 11 mph (South)    
Max Wind Speed 21 mph    
Max Gust Speed 28 mph    
Visibility 8 miles    
Events Rain , Snow    
Averages and records for this station are not official NWS values.
T = Trace of Precipitation, MM = Missing Value Source: NWS Daily Summary

Daily Weather History Graph

Daily Weather History Graph

Search for Another Location

Airport:

Trip Planner

Search our weather history database for the weather conditions in past years. The results will help you decide how hot, cold, wet, or windy it might be!

Date:

Astronomy

Feb. 18, 2013 Rise Set
Actual Time 6:45 AM CST 5:27 PM CST
Civil Twilight 6:16 AM CST 5:56 PM CST
Nautical Twilight 5:42 AM CST 6:29 PM CST
Astronomical Twilight 5:10 AM CST 7:02 PM CST
Moon 11:08 AM CST (2/18) 1:28 AM CST (2/18)
Length of Visible Light 11h 40m
Length of Day
10h 42m
First Quarter, 58% of the Moon is Illuminated
Feb 18
First Quarter
Feb 25
Full
Mar 4
Last Quarter
Mar 11
New
Mar 19
First Quarter

Hourly Weather History & Observations

Time (CST) Temp. Windchill Dew Point Humidity Pressure Visibility Wind Dir Wind Speed Gust Speed Precip Events Conditions
12:15 AM 28.4 °F 19.1 °F 14.0 °F 55% 29.98 in 10.0 mi SSE 10.4 mph 18.4 mph N/A   Mostly Cloudy
12:55 AM 28.4 °F 18.5 °F 15.8 °F 59% 29.95 in 10.0 mi SSE 11.5 mph 18.4 mph N/A   Clear
1:15 AM 28.4 °F 18.5 °F 17.6 °F 64% 29.95 in 10.0 mi SSE 11.5 mph 18.4 mph N/A   Clear
1:35 AM 28.4 °F 18.5 °F 17.6 °F 64% 29.94 in 10.0 mi SSE 11.5 mph - N/A   Clear
1:55 AM 28.4 °F 19.1 °F 17.6 °F 64% 29.93 in 10.0 mi SSE 10.4 mph - N/A   Clear
2:15 AM 28.4 °F 19.7 °F 17.6 °F 64% 29.91 in 10.0 mi SSE 9.2 mph - N/A   Clear
2:35 AM 30.2 °F 21.9 °F 19.4 °F 64% 29.89 in 10.0 mi SSE 9.2 mph 16.1 mph N/A   Clear
2:55 AM 30.2 °F 19.3 °F 19.4 °F 64% 29.88 in 10.0 mi SSE 15.0 mph - N/A   Clear
3:15 AM 30.2 °F 20.8 °F 19.4 °F 64% 29.86 in 10.0 mi SSE 11.5 mph 18.4 mph N/A   Clear
3:35 AM 30.2 °F 20.2 °F 19.4 °F 64% 29.84 in 10.0 mi SSE 12.7 mph - N/A   Clear
3:55 AM 30.2 °F 20.8 °F 19.4 °F 64% 29.83 in 10.0 mi SSE 11.5 mph 17.3 mph N/A   Clear
4:15 AM 30.2 °F 21.9 °F 19.4 °F 64% 29.82 in 10.0 mi SSE 9.2 mph 17.3 mph N/A   Clear
4:35 AM 30.2 °F 22.6 °F 19.4 °F 64% 29.81 in 10.0 mi SSE 8.1 mph - N/A   Clear
4:55 AM 30.2 °F 21.3 °F 19.4 °F 64% 29.80 in 10.0 mi SSE 10.4 mph - N/A   Clear
5:15 AM 30.2 °F 21.9 °F 19.4 °F 64% 29.79 in 10.0 mi SSE 9.2 mph - N/A   Clear
5:35 AM 30.2 °F 22.6 °F 19.4 °F 64% 29.78 in 10.0 mi SSE 8.1 mph - N/A   Clear
6:45 AM 30.2 °F 19.8 °F 17.6 °F 60% 29.75 in 10.0 mi South 13.8 mph - N/A   Clear
7:45 AM 30.2 °F 20.8 °F 19.4 °F 64% 29.73 in 10.0 mi SSE 11.5 mph - N/A   Clear
8:45 AM 32.0 °F 23.0 °F 21.2 °F 64% 29.71 in 10.0 mi South 11.5 mph - N/A   Clear
9:45 AM 35.6 °F 27.5 °F 24.8 °F 65% 29.68 in 10.0 mi South 11.5 mph - N/A   Clear
10:45 AM 37.4 °F 28.9 °F 26.6 °F 65% 29.66 in 10.0 mi South 13.8 mph - N/A   Clear
11:45 AM 41.0 °F 33.5 °F 28.4 °F 61% 29.63 in 10.0 mi South 13.8 mph - N/A   Clear
12:45 PM 44.6 °F 38.1 °F 30.2 °F 57% 29.59 in 10.0 mi South 13.8 mph - N/A   Clear
1:45 PM 46.4 °F 40.1 °F 33.8 °F 62% 29.56 in 10.0 mi South 15.0 mph 19.6 mph N/A   Clear
2:45 PM 46.4 °F 40.1 °F 35.6 °F 66% 29.55 in 10.0 mi South 15.0 mph - N/A   Overcast
3:45 PM 44.6 °F 40.2 °F 35.6 °F 71% 29.53 in 10.0 mi South 8.1 mph - N/A   Overcast
5:45 PM 44.6 °F 40.7 °F 39.2 °F 81% 29.47 in 10.0 mi SSE 6.9 mph - N/A   Overcast
6:45 PM 42.8 °F 39.3 °F 41.0 °F 93% 29.44 in 4.0 mi SSE 5.8 mph - N/A Rain Rain
7:45 PM 42.8 °F 38.0 °F 41.0 °F 93% 29.41 in 2.5 mi South 8.1 mph - N/A Rain Rain
8:15 PM 41.0 °F 36.4 °F 39.2 °F 93% 29.41 in 3.0 mi West 6.9 mph - 0.06 in Rain Light Rain
8:35 PM 37.4 °F 27.2 °F 35.6 °F 93% 29.40 in 5.0 mi NW 19.6 mph - 0.08 in Rain Light Rain
8:45 PM 39.2 °F 31.2 °F 35.6 °F 87% 29.40 in 7.0 mi WNW 13.8 mph 21.9 mph N/A Rain Rain
8:55 PM 35.6 °F 26.2 °F 33.8 °F 93% 29.41 in 4.0 mi NW 15.0 mph - 0.11 in Rain Rain
9:15 PM 33.8 °F 26.4 °F 32.0 °F 93% 29.40 in 3.0 mi NW 9.2 mph - 0.05 in Rain Rain
9:35 PM 33.8 °F 24.8 °F 32.0 °F 93% 29.39 in 5.0 mi NW 12.7 mph - 0.07 in Rain Light Rain
9:55 PM 32.0 °F 24.2 °F 32.0 °F 100% 29.40 in 2.5 mi West 9.2 mph - 0.08 in Snow Light Snow
10:15 PM 32.0 °F 24.2 °F 32.0 °F 100% 29.41 in 4.0 mi West 9.2 mph - N/A Snow Light Snow
10:35 PM 32.0 °F 22.5 °F 32.0 °F 100% 29.41 in 4.0 mi West 12.7 mph 18.4 mph 0.01 in Snow Light Snow
10:55 PM 32.0 °F 22.5 °F 32.0 °F 100% 29.43 in 4.0 mi West 12.7 mph - 0.01 in Snow Light Snow
11:15 PM 32.0 °F 22.5 °F 32.0 °F 100% 29.44 in 2.0 mi West 12.7 mph - N/A Snow Light Snow
11:35 PM 32.0 °F 22.5 °F 32.0 °F 100% 29.44 in 2.5 mi West 12.7 mph 23.0 mph N/A Snow Light Snow
11:55 PM 32.0 °F 19.8 °F 30.2 °F 93% 29.46 in 5.0 mi West 20.7 mph 27.6 mph N/A Snow Light Snow